World > North America > United States > Florida > Indian Rocks Beach

Hourly Indian Rocks Beach, FL Regional Weather

Feedback E-mail the Weather

Quick WX

Indian Rocks Beach, FL Weather Maps

°F °C°F °C
Indian Rocks Beach Weather Map
UTC Time: 8/17/2022, 19:59
Your Time:

Indian Rocks Beach, FL Regional Weather

Expires:202208172000;;211439
ASUS42 KTBW 171916
RWRFL 
FLORIDA REGIONAL WEATHER ROUNDUP
NATIONAL WEATHER SERVICE TAMPA BAY RUSKIN FL
300 PM EDT WED AUG 17 2022

NOTE: "FAIR" INDICATES FEW OR NO CLOUDS BELOW 12,000 FEET WITH NO
SIGNIFICANT WEATHER AND/OR OBSTRUCTIONS TO VISIBILITY.


FLZ050-056-061-142-242-148-248-149-249-151-251-155-255-
160-260-172000-
WEST CENTRAL FLORIDA
  
CITY           SKY/WX    TMP DP  RH WIND       PRES   REMARKS
CRYSTAL RIVER  PTSUNNY   90  79  70 W10G18    29.93F HX 105           
INVERNESS      CLOUDY    88  79  74 CALM      29.95R HX 102           
BROOKSVILLE    CLOUDY    87  79  76 VRB5      29.96F HX 101           
CLEARWATER AIR FAIR      86  75  70 W9        29.96S HX  95           
ST PETE CLEARW PTSUNNY   88  77  69 NW8       29.95F HX 100           
TAMPA INTL     PTSUNNY   90  78  68 W10       29.96F HX 104           
TAMPA EXEC     PTSUNNY   90  79  70 W6        29.96F HX 105           
PLANT CITY     PTSUNNY   91  77  62 W10       29.98S HX 105           
MACDILL AFB    PTSUNNY   90  76  64 NW8       29.92F HX 102           
ST PETERSBURG  PTSUNNY   87  73  62 W10       29.94F                  
SARASOTA       SUNNY     89  77  67 W12       29.95S HX 101           
VENICE         FAIR      90  79  70 W10       29.97F HX 105           

STATION/POSITION SKY/WX   TEMP    WIND        PRES    WAVE   SWELL
                          AIR SEA DIR/SP/G            HT/PER HT/PER
                          (F)     (DEG/KT/KT) (MB)    (FT/S) (FT/S)
27.3N   84.3W                 84                N/A     2/ 5
CLEARWATER BEACH           86 88  310/  8/ 10 1015.0
MIDDLE TAMPA BAY           85     280/  9/ 12   N/A
VENICE                     87 88  270/ 10/ 11 1014.4F

$$

SKY/WX - Weather  TMP - Temperature  DP - Dew Point  RH - Humidity
WIND - Wind Direction/Speed PRES - Barometric Pressure VSB - Visibility
WCI - Wind Chill Index E13G22 Wind - East Wind 13 mph/Gusts of 22 mph

Trending Headlines

Indian Rocks Beach Radar Loop



Indian Rocks Beach Quick Facts


National Two Day Weather Forecast


E-mail the Indian Rocks Beach Weather Forecast

Voice your opinion or tell us about page issues...